N6GIW Weather Reports


time (UTC)temp
C
wind
direction
speed
KPH
gust
KPH
rain 1hr
cm
rain 24hr
cm
rain mn
cm
humidity
%
barometer
mb
20260901231503 31 191 27.4 38.6 0.00 0.00 0.00 14 1021.8
20260901231004 30 197 27.4 41.8 0.00 0.00 0.00 14 1021.7
20260901230504 31 183 32.2 49.9 0.00 0.00 0.00 14 1021.7
20260901230003 31 189 30.6 41.8 0.00 0.00 0.00 12 1021.7
20260901225504 31 190 27.4 46.7 0.00 0.00 0.00 11 1021.7
20260901225004 31 193 22.5 46.7 0.00 0.00 0.00 12 1021.8
20260901224504 31 178 30.6 46.7 0.00 0.00 0.00 11 1021.8
20260901224003 31 184 30.6 46.7 0.00 0.00 0.00 10 1021.8
20260901223005 31 178 32.2 53.1 0.00 0.00 0.00 9 1021.8
20260901222503 31 178 30.6 48.3 0.00 0.00 0.00 11 1021.8
20260901222004 31 184 30.6 48.3 0.00 0.00 0.00 11 1021.8
20260901221504 31 186 33.8 48.3 0.00 0.00 0.00 11 1021.9
20260901220503 31 197 27.4 45.1 0.00 0.00 0.00 10 1021.9
20260901220003 31 191 30.6 48.3 0.00 0.00 0.00 13 1021.9
20260901215504 31 191 32.2 49.9 0.00 0.00 0.00 14 1022.1
20260901215004 32 215 25.7 38.6 0.00 0.00 0.00 11 1022.1
20260901213503 31 181 29.0 41.8 0.00 0.00 0.00 12 1022.1
20260901213004 31 204 25.7 40.2 0.00 0.00 0.00 12 1022.2
20260901212503 31 201 22.5 33.8 0.00 0.00 0.00 13 1022.2
20260901212004 31 198 25.7 37.0 0.00 0.00 0.00 14 1022.3
20260901211503 31 205 27.4 38.6 0.00 0.00 0.00 11 1022.3
20260901210004 31 190 29.0 41.8 0.00 0.00 0.00 12 1022.3
20260901205504 31 207 29.0 45.1 0.00 0.00 0.00 11 1022.4
20260901205003 31 206 25.7 38.6 0.00 0.00 0.00 12 1022.3
20260901204504 31 193 29.0 41.8 0.00 0.00 0.00 12 1022.3
20260901204004 31 200 24.1 40.2 0.00 0.00 0.00 13 1022.3
20260901203004 31 207 25.7 45.1 0.00 0.00 0.00 14 1022.4
20260901202503 31 188 25.7 46.7 0.00 0.00 0.00 14 1022.6
20260901202004 31 197 27.4 40.2 0.00 0.00 0.00 14 1022.6
20260901201004 31 199 30.6 46.7 0.00 0.00 0.00 16 1022.7
20260901200504 31 203 25.7 41.8 0.00 0.00 0.00 16 1022.9
20260901194503 30 208 30.6 56.3 0.00 0.00 0.00 17 1022.9
20260901194003 30 191 32.2 46.7 0.00 0.00 0.00 16 1022.9
20260901193504 30 203 29.0 45.1 0.00 0.00 0.00 19 1023.1
20260901193004 30 196 29.0 49.9 0.00 0.00 0.00 21 1023.3
20260901192503 30 195 25.7 38.6 0.00 0.00 0.00 23 1023.4
20260901192003 30 206 30.6 48.3 0.00 0.00 0.00 24 1023.3
20260901191003 29 190 25.7 45.1 0.00 0.00 0.00 23 1023.5
20260901190504 29 181 29.0 45.1 0.00 0.00 0.00 23 1023.5
20260901190003 29 187 27.4 48.3 0.00 0.00 0.00 22 1023.5
20260901185503 29 177 33.8 51.5 0.00 0.00 0.00 23 1023.5
20260901185004 29 183 33.8 48.3 0.00 0.00 0.00 23 1023.4
20260901184504 29 217 27.4 46.7 0.00 0.00 0.00 24 1023.4
20260901183504 29 202 30.6 41.8 0.00 0.00 0.00 22 1023.4
20260901183003 29 191 30.6 49.9 0.00 0.00 0.00 23 1023.3
20260901182503 29 188 35.4 56.3 0.00 0.00 0.00 23 1023.3
20260901182003 29 199 32.2 46.7 0.00 0.00 0.00 22 1023.4
20260901181503 29 200 30.6 51.5 0.00 0.00 0.00 25 1023.6
20260901181004 28 190 32.2 49.9 0.00 0.00 0.00 23 1023.6
20260901180503 29 196 29.0 41.8 0.00 0.00 0.00 23 1023.8
20260901180005 29 202 29.0 40.2 0.00 0.00 0.00 24 1023.6
20260901175504 29 208 22.5 37.0 0.00 0.00 0.00 24 1023.8
20260901175004 28 202 33.8 69.2 0.00 0.00 0.00 23 1023.8
20260901174503 28 212 27.4 38.6 0.00 0.00 0.00 23 1023.7
20260901174003 28 201 30.6 41.8 0.00 0.00 0.00 23 1023.7
20260901173003 28 197 24.1 40.2 0.00 0.00 0.00 22 1023.6
20260901172003 28 187 27.4 40.2 0.00 0.00 0.00 23 1023.7
20260901171503 28 196 27.4 38.6 0.00 0.00 0.00 22 1023.6
20260901170503 28 218 22.5 35.4 0.00 0.00 0.00 23 1023.7
20260901170003 28 182 22.5 35.4 0.00 0.00 0.00 23 1023.7
20260901165503 28 204 16.1 32.2 0.00 0.00 0.00 24 1023.6
20260901165004 28 207 19.3 38.6 0.00 0.00 0.00 24 1023.6
20260901164504 28 204 19.3 33.8 0.00 0.00 0.00 25 1023.6
20260901164004 28 217 20.9 32.2 0.00 0.00 0.00 26 1023.6
20260901154004 27 249 8.0 19.3 0.00 0.00 0.00 28 1023.2
20260901153504 26 224 8.0 16.1 0.00 0.00 0.00 29 1023.4
20260901152504 25 25 0.0 0.0 0.00 0.00 0.00 23 1023.2
20260901152003 25 358 0.0 3.2 0.00 0.00 0.00 24 1023.2
20260901151504 25 339 1.6 8.0 0.00 0.00 0.00 26 1023.2
20260901151003 25 24 1.6 4.8 0.00 0.00 0.00 23 1023.2
20260901150503 25 25 1.6 4.8 0.00 0.00 0.00 22 1023.2
20260901150003 25 261 0.0 0.0 0.00 0.00 0.00 22 1023.2
20260901145504 25 260 0.0 0.0 0.00 0.00 0.00 22 1023.3
20260901144503 24 260 0.0 0.0 0.00 0.00 0.00 23 1023.1
20260901143503 23 261 0.0 0.0 0.00 0.00 0.00 24 1023.1
20260901142504 22 261 0.0 0.0 0.00 0.00 0.00 25 1022.9
20260901141004 22 271 0.0 4.8 0.00 0.00 0.00 23 1022.8
20260901140504 22 212 3.2 9.7 0.00 0.00 0.00 23 1022.6
20260901140003 22 223 4.8 9.7 0.00 0.00 0.00 22 1022.5
20260901135004 22 229 6.4 14.5 0.00 0.00 0.00 24 1022.4
20260901134504 22 220 8.0 16.1 0.00 0.00 0.00 22 1022.4
20260901134004 22 210 8.0 19.3 0.00 0.00 0.00 24 1022.3
20260901133503 22 213 8.0 16.1 0.00 0.00 0.00 23 1022.2
20260901132503 22 202 11.3 19.3 0.00 0.00 0.00 22 1022.1
20260901132004 21 200 11.3 19.3 0.00 0.00 0.00 22 1021.9
20260901131503 21 209 11.3 19.3 0.00 0.00 0.00 22 1021.9
20260901131003 21 203 9.7 14.5 0.00 0.00 0.00 20 1021.9
20260901130503 21 204 11.3 16.1 0.00 0.00 0.00 19 1021.9
20260901130004 21 203 11.3 16.1 0.00 0.00 0.00 18 1021.9
20260901125503 21 196 11.3 16.1 0.00 0.00 0.00 18 1022.0
20260901125003 22 209 11.3 19.3 0.00 0.00 0.00 18 1022.0
20260901124003 22 219 14.5 22.5 0.00 0.00 0.00 20 1022.0
20260901123504 22 224 14.5 22.5 0.00 0.00 0.00 23 1021.9
20260901123004 22 227 11.3 19.3 0.00 0.00 0.00 20 1022.0
20260901122503 22 216 11.3 19.3 0.00 0.00 0.00 21 1022.2
20260901121504 21 228 3.2 11.3 0.00 0.00 0.00 24 1022.2
20260901120503 20 268 4.8 11.3 0.00 0.00 0.00 24 1022.1
20260901115503 18 217 0.0 0.0 0.00 0.00 0.00 30 1022.1
20260901115003 18 217 0.0 3.2 0.00 0.00 0.00 29 1022.1
20260901114004 20 217 0.0 0.0 0.00 0.00 0.00 28 1022.3
20260901113503 20 217 0.0 8.0 0.00 0.00 0.00 28 1022.3
20260901113003 20 215 0.0 4.8 0.00 0.00 0.00 28 1022.1
20260901112004 19 225 0.0 1.6 0.00 0.00 0.00 29 1022.2
20260901111503 19 213 1.6 3.2 0.00 0.00 0.00 30 1022.2
20260901111004 18 214 0.0 1.6 0.00 0.00 0.00 30 1022.2
20260901110504 19 214 0.0 1.6 0.00 0.00 0.00 30 1022.3
20260901103504 18 214 3.2 4.8 0.00 0.00 0.00 33 1022.3
20260901103003 18 205 1.6 4.8 0.00 0.00 0.00 33 1022.2
20260901102504 18 207 0.0 1.6 0.00 0.00 0.00 33 1022.2
20260901102004 18 205 0.0 1.6 0.00 0.00 0.00 32 1022.4
20260901101504 19 205 0.0 0.0 0.00 0.00 0.00 32 1022.5
20260901101003 19 207 0.0 0.0 0.00 0.00 0.00 32 1022.3
20260901100004 18 205 0.0 0.0 0.00 0.00 0.00 34 1022.3
20260901095503 17 204 0.0 0.0 0.00 0.00 0.00 35 1022.3
20260901095004 17 204 0.0 0.0 0.00 0.00 0.00 35 1022.3
20260901094504 17 202 0.0 0.0 0.00 0.00 0.00 35 1022.2
20260901094003 17 202 0.0 0.0 0.00 0.00 0.00 34 1022.1
20260901093504 18 202 0.0 0.0 0.00 0.00 0.00 33 1022.0
20260901093003 18 202 0.0 0.0 0.00 0.00 0.00 33 1022.2
20260901092503 18 202 0.0 0.0 0.00 0.00 0.00 33 1022.2
20260901092004 18 202 0.0 0.0 0.00 0.00 0.00 34 1022.3
20260901091003 18 201 0.0 1.6 0.00 0.00 0.00 33 1022.3
20260901090504 19 200 0.0 1.6 0.00 0.00 0.00 33 1022.3
20260901090004 19 192 3.2 4.8 0.00 0.00 0.00 33 1022.2
20260901085503 18 192 0.0 0.0 0.00 0.00 0.00 35 1022.3
20260901085004 18 192 0.0 3.2 0.00 0.00 0.00 36 1022.3
20260901084503 18 241 0.0 0.0 0.00 0.00 0.00 34 1022.3
20260901084003 19 242 0.0 0.0 0.00 0.00 0.00 34 1022.2
20260901083503 19 242 0.0 0.0 0.00 0.00 0.00 34 1022.1
20260901083003 19 242 0.0 0.0 0.00 0.00 0.00 35 1022.2
20260901082503 18 206 0.0 1.6 0.00 0.00 0.00 35 1022.1
20260901081504 18 175 1.6 4.8 0.00 0.00 0.00 34 1022.2
20260901081004 19 186 0.0 1.6 0.00 0.00 0.00 34 1022.2
20260901080503 19 187 1.6 3.2 0.00 0.00 0.00 34 1022.2
20260901080004 19 225 0.0 0.0 0.00 0.00 0.00 34 1022.3
20260901075503 20 225 0.0 0.0 0.00 0.00 0.00 33 1022.4
20260901075003 21 235 0.0 0.0 0.00 0.00 0.00 32 1022.4
20260901074504 21 263 0.0 0.0 0.00 0.00 0.00 32 1022.4
20260901074004 21 263 0.0 0.0 0.00 0.00 0.00 31 1022.4
20260901073504 22 263 0.0 3.2 0.00 0.00 0.00 31 1022.2
20260901073003 22 263 0.0 4.8 0.00 0.00 0.00 32 1022.3
20260901072504 22 264 0.0 4.8 0.00 0.00 0.00 32 1022.3
20260901072003 22 264 1.6 3.2 0.00 0.00 0.00 32 1022.4
20260901071504 22 254 0.0 1.6 0.00 0.00 0.00 32 1022.4
20260901071005 22 283 0.0 3.2 0.00 0.00 0.00 32 1022.4
20260901070003 22 274 1.6 4.8 0.00 0.00 0.00 32 1022.3
20260901065503 22 243 1.6 4.8 0.00 0.00 0.00 32 1022.3
20260901065003 22 273 0.0 4.8 0.00 0.00 0.00 32 1022.4
20260901064503 23 261 3.2 9.7 0.00 0.00 0.00 32 1022.2
20260901063004 22 271 0.0 0.0 0.00 0.00 0.00 34 1022.2
20260901062504 22 271 0.0 0.0 0.00 0.00 0.00 34 1022.2
20260901062003 22 271 0.0 0.0 0.00 0.00 0.00 34 1022.1
20260901061503 23 266 0.0 0.0 0.00 0.00 0.00 32 1022.0
20260901061003 23 255 0.0 0.0 0.00 0.00 0.00 32 1021.9
20260901060003 23 211 0.0 0.0 0.00 0.00 0.00 32 1021.9
20260901055004 23 216 0.0 0.0 0.00 0.00 0.00 32 1022.0
20260901054504 24 220 0.0 0.0 0.00 0.00 0.00 32 1022.0
20260901054003 24 234 0.0 0.0 0.00 0.00 0.00 32 1022.0
20260901053503 24 228 4.8 19.3 0.00 0.00 0.00 32 1021.9
20260901053003 24 220 9.7 20.9 0.00 0.00 0.00 31 1022.1
20260901052004 24 245 9.7 19.3 0.00 0.00 0.00 32 1022.1
20260901051503 23 251 8.0 12.9 0.00 0.00 0.00 33 1022.1
20260901050503 24 213 9.7 16.1 0.00 0.00 0.00 34 1022.1
20260901050004 24 199 14.5 22.5 0.00 0.00 0.00 34 1022.1
20260901045503 24 198 16.1 22.5 0.00 0.00 0.00 34 1022.1
20260901045003 24 196 16.1 29.0 0.00 0.00 0.00 34 1022.0
20260901044505 25 197 16.1 24.1 0.00 0.00 0.00 35 1022.0
20260901044004 25 200 19.3 25.7 0.00 0.00 0.00 35 1021.9
20260901043503 24 199 16.1 29.0 0.00 0.00 0.00 35 1022.0
20260901043003 25 195 19.3 29.0 0.00 0.00 0.00 36 1022.0
20260901042004 25 171 20.9 32.2 0.00 0.00 0.00 36 1021.7
20260901041504 24 185 19.3 29.0 0.00 0.00 0.00 37 1021.6
20260901041005 24 192 19.3 25.7 0.00 0.00 0.00 38 1021.6
20260901040504 24 196 16.1 24.1 0.00 0.00 0.00 39 1021.5
20260901040003 24 201 19.3 27.4 0.00 0.00 0.00 40 1021.5
20260901035503 24 199 17.7 27.4 0.00 0.00 0.00 41 1021.5
20260901035004 24 196 19.3 32.2 0.00 0.00 0.00 41 1021.5
20260901034504 24 192 16.1 29.0 0.00 0.00 0.00 41 1021.5
20260901034004 24 188 19.3 27.4 0.00 0.00 0.00 42 1021.3
20260901033504 25 172 19.3 24.1 0.00 0.00 0.00 41 1021.1
20260901033003 25 194 19.3 25.7 0.00 0.00 0.00 39 1021.0
20260901032503 25 209 19.3 25.7 0.00 0.00 0.00 39 1020.8
20260901031504 25 206 20.9 29.0 0.00 0.00 0.00 39 1020.7
20260901031004 25 203 16.1 29.0 0.00 0.00 0.00 39 1020.7
20260901030504 25 205 19.3 29.0 0.00 0.00 0.00 40 1020.8
20260901030005 25 197 17.7 29.0 0.00 0.00 0.00 40 1020.7
20260901025503 25 205 19.3 32.2 0.00 0.00 0.00 40 1020.7
20260901025005 25 204 16.1 24.1 0.00 0.00 0.00 40 1020.7
20260901024504 26 200 16.1 27.4 0.00 0.00 0.00 40 1020.6
20260901024004 26 191 16.1 24.1 0.00 0.00 0.00 39 1020.6
20260901023503 26 196 17.7 29.0 0.00 0.00 0.00 39 1020.5
20260901023003 26 189 17.7 24.1 0.00 0.00 0.00 39 1020.5
20260901022503 26 199 16.1 32.2 0.00 0.00 0.00 39 1020.5
20260901022003 26 180 19.3 32.2 0.00 0.00 0.00 38 1020.4
20260901021504 27 174 16.1 22.5 0.00 0.00 0.00 37 1020.3
20260901021003 27 197 19.3 25.7 0.00 0.00 0.00 36 1020.1
20260901020504 28 199 14.5 24.1 0.00 0.00 0.00 34 1020.2
20260901020004 28 209 17.7 24.1 0.00 0.00 0.00 33 1020.3
20260901015504 28 197 14.5 27.4 0.00 0.00 0.00 32 1020.3
20260901015004 28 208 16.1 22.5 0.00 0.00 0.00 30 1020.3
20260901014004 30 226 19.3 29.0 0.00 0.00 0.00 25 1020.1
20260901013503 30 224 14.5 24.1 0.00 0.00 0.00 24 1020.1
20260901013004 30 214 14.5 24.1 0.00 0.00 0.00 24 1020.1
20260901012504 30 210 16.1 25.7 0.00 0.00 0.00 24 1020.2
20260901012003 30 232 19.3 32.2 0.00 0.00 0.00 25 1020.0
20260901011503 30 222 17.7 32.2 0.00 0.00 0.00 24 1020.2
20260901011003 30 219 9.7 25.7 0.00 0.00 0.00 25 1020.2
20260901010003 30 205 19.3 33.8 0.00 0.00 0.00 27 1020.2
20260901005503 30 208 19.3 32.2 0.00 0.00 0.00 27 1020.3
20260901005004 31 207 22.5 35.4 0.00 0.00 0.00 26 1020.4
20260901004504 31 214 16.1 32.2 0.00 0.00 0.00 26 1020.1
20260901003504 31 218 17.7 29.0 0.00 0.00 0.00 25 1020.3
20260901003003 31 211 20.9 37.0 0.00 0.00 0.00 24 1020.3
20260901002004 31 198 25.7 40.2 0.00 0.00 0.00 25 1020.3
20260901001504 31 195 24.1 35.4 0.00 0.00 0.00 24 1020.3
20260901001003 31 205 22.5 41.8 0.00 0.00 0.00 23 1020.1
20260901000004 31 206 25.7 37.0 0.00 0.00 0.00 23 1020.3
20260831235503 31 202 25.7 37.0 0.00 0.00 0.00 23 1020.3
20260831235004 32 211 24.1 35.4 0.00 0.00 0.00 23 1020.3
20260831234505 32 198 20.9 32.2 0.00 0.00 0.00 21 1020.4
20260831234003 32 212 25.7 35.4 0.00 0.00 0.00 21 1020.2
20260831233503 32 203 22.5 37.0 0.00 0.00 0.00 22 1020.2
20260831233004 32 200 25.7 46.7 0.00 0.00 0.00 21 1020.2
20260831232504 32 182 25.7 37.0 0.00 0.00 0.00 21 1020.3
20260831232004 32 197 24.1 38.6 0.00 0.00 0.00 21 1020.3